Alma, GA

12:55 PM EDT on June 22, 2017 (GMT -0400)
Bacon County

Weather History for KAMG - October, 2012

Change the Weather History Date:

Monday, October 15, 2012

  Actual Average Record
Temperature  
Mean Temperature 74 °F 69 °F  
Max Temperature 85 °F 80 °F 89 °F (1962)
Min Temperature 63 °F 58 °F 36 °F (1955)
Degree Days  
Heating Degree Days 0 1  
Month to date heating degree days 0 10  
Since 1 July heating degree days 0 12  
Cooling Degree Days 9 5  
Month to date cooling degree days 122 99  
Year to date cooling degree days 2609 2369  
Growing Degree Days 23 (Base 50)    
Moisture  
Dew Point 65 °F    
Average Humidity 76    
Maximum Humidity 100    
Minimum Humidity 51    
Precipitation  
Precipitation 0.00 in 0.11 in 1.85 in (1964)
Month to date precipitation 0.30 1.56  
Year to date precipitation 33.28 39.41  
Snow  
Snow 0.00 in 0.00 in 0.00 in ()
Month to date snowfall 0.0 0.0  
Since 1 July snowfall 0.0 0.0  
Since 1 September snowfall 0.0 0.0  
Snow Depth 0.00 in    
Sea Level Pressure  
Sea Level Pressure 29.95 in    
Wind  
Wind Speed 4 mph (WSW)    
Max Wind Speed 14 mph    
Max Gust Speed 18 mph    
Visibility 5 miles    
Events Fog , Thunderstorm    
T = Trace of Precipitation, MM = Missing Value Source: NWS Daily Summary

Daily Weather History Graph

Daily Weather History Graph

Search for Another Location

Airport or City:

Trip Planner

Search our weather history database for the weather conditions in past years. The results will help you decide how hot, cold, wet, or windy it might be!

Date:

Astronomy

Oct. 15, 2012 Rise Set
Actual Time 7:33 AM EDT 6:57 PM EDT
Civil Twilight 7:08 AM EDT 7:21 PM EDT
Nautical Twilight 6:40 AM EDT 7:50 PM EDT
Astronomical Twilight 6:12 AM EDT 8:18 PM EDT
Moon 7:38 AM EDT (10/15) 7:01 PM EDT (10/15)
Length of Visible Light 12h 12m
Length of Day
11h 23m
New Moon, 0% of the Moon is Illuminated
Oct 15
New Moon
Oct 21
First Quarter
Oct 29
Full
Nov 6
Last Quarter
Nov 13
New

Hourly Weather History & Observations

Time (EDT) Temp. Heat Index Dew Point Humidity Pressure Visibility Wind Dir Wind Speed Gust Speed Precip Events Conditions
12:03 AM 66.2 °F - 64.4 °F 94% 30.04 in 0.2 mi Calm Calm - N/A Fog Fog
12:18 AM 66.2 °F - 64.4 °F 94% 30.03 in 1.0 mi Calm Calm - N/A   Mist
12:21 AM 66.2 °F - 64.4 °F 94% 30.03 in 2.0 mi Calm Calm - N/A   Scattered Clouds
12:26 AM 66.2 °F - 64.4 °F 94% 30.03 in 1.0 mi Calm Calm - N/A   Mist
12:33 AM 66.2 °F - 64.4 °F 94% 30.03 in 0.5 mi Calm Calm - N/A Fog Fog
12:53 AM 66.0 °F - 64.0 °F 93% 30.01 in 0.5 mi Calm Calm - N/A Fog Fog
1:11 AM 66.2 °F - 64.4 °F 94% 30.02 in 2.0 mi Calm Calm - N/A   Mostly Cloudy
1:17 AM 66.2 °F - 64.4 °F 94% 30.01 in 0.8 mi Calm Calm - N/A   Mostly Cloudy
1:35 AM 64.4 °F - 62.6 °F 94% 30.01 in 0.8 mi Calm Calm - N/A   Mostly Cloudy
1:44 AM 64.4 °F - 64.4 °F 100% 30.01 in 1.8 mi Calm Calm - N/A   Mostly Cloudy
1:53 AM 66.0 °F - 64.0 °F 93% 30.00 in 7.0 mi Calm Calm - N/A   Scattered Clouds
2:11 AM 64.4 °F - 64.4 °F 100% 30.00 in 1.5 mi Calm Calm - N/A   Clear
2:20 AM 64.4 °F - 62.6 °F 94% 30.00 in 0.5 mi Calm Calm - N/A Fog Fog
2:44 AM 64.4 °F - 64.4 °F 100% 30.00 in 2.0 mi Calm Calm - N/A   Scattered Clouds
2:51 AM 66.2 °F - 64.4 °F 94% 29.99 in 7.0 mi Calm Calm - N/A   Partly Cloudy
2:53 AM 66.0 °F - 64.0 °F 93% 29.99 in 7.0 mi Calm Calm - N/A   Partly Cloudy
2:59 AM 64.4 °F - 62.6 °F 94% 29.99 in 1.5 mi Calm Calm - N/A   Scattered Clouds
3:18 AM 64.4 °F - 62.6 °F 94% 29.98 in 3.0 mi Calm Calm - N/A   Scattered Clouds
3:34 AM 64.4 °F - 64.4 °F 100% 29.98 in 2.5 mi Calm Calm - N/A   Partly Cloudy
3:43 AM 66.2 °F - 64.4 °F 94% 29.98 in 8.0 mi Calm Calm - N/A   Clear
3:53 AM 64.9 °F - 64.0 °F 97% 29.97 in 8.0 mi Calm Calm - N/A   Clear
4:17 AM 64.4 °F - 62.6 °F 94% 29.96 in 1.8 mi Calm Calm - N/A   Partly Cloudy
4:27 AM 64.4 °F - 62.6 °F 94% 29.97 in 0.8 mi Calm Calm - N/A   Scattered Clouds
4:39 AM 64.4 °F - 62.6 °F 94% 29.97 in 3.0 mi Calm Calm - N/A   Partly Cloudy
4:53 AM 64.0 °F - 63.0 °F 96% 29.96 in 3.0 mi Calm Calm - N/A   Scattered Clouds
5:03 AM 64.4 °F - 62.6 °F 94% 29.97 in 1.8 mi Calm Calm - N/A   Mostly Cloudy
5:36 AM 64.4 °F - 62.6 °F 94% 29.97 in 2.5 mi Calm Calm - N/A   Partly Cloudy
5:53 AM 64.0 °F - 62.1 °F 93% 29.96 in 2.0 mi Calm Calm - N/A   Mostly Cloudy
6:05 AM 64.4 °F - 62.6 °F 94% 29.97 in 8.0 mi Calm Calm - N/A   Overcast
6:44 AM 64.4 °F - 62.6 °F 94% 29.97 in 2.5 mi Calm Calm - N/A   Overcast
6:53 AM 63.0 °F - 62.1 °F 97% 29.96 in 5.0 mi Calm Calm - N/A   Overcast
7:01 AM 64.4 °F - 62.6 °F 94% 29.97 in 5.0 mi Calm Calm - N/A   Overcast
7:36 AM 64.4 °F - 62.6 °F 94% 29.97 in 1.5 mi Calm Calm - N/A   Overcast
7:45 AM 64.4 °F - 62.6 °F 94% 29.97 in 0.8 mi Calm Calm - N/A   Overcast
7:50 AM 62.6 °F - 62.6 °F 100% 29.97 in 2.0 mi Calm Calm - N/A   Overcast
7:53 AM 63.0 °F - 62.1 °F 97% 29.97 in 5.0 mi Calm Calm - N/A   Overcast
8:53 AM 68.0 °F - 66.0 °F 93% 29.98 in 6.0 mi Calm Calm - N/A   Overcast
9:53 AM 73.0 °F - 69.1 °F 87% 29.99 in 9.0 mi WSW 8.1 mph - N/A   Overcast
10:53 AM 77.0 °F - 70.0 °F 79% 29.98 in 10.0 mi West 11.5 mph - N/A   Overcast
11:14 AM 75.2 °F - 69.8 °F 83% 29.97 in 10.0 mi West 8.1 mph - N/A   Mostly Cloudy
11:21 AM 75.2 °F - 69.8 °F 83% 29.97 in 10.0 mi West 8.1 mph - N/A   Scattered Clouds
11:53 AM 79.0 °F - 69.1 °F 72% 29.95 in 10.0 mi SW 11.5 mph 18.4 mph N/A   Scattered Clouds
12:03 PM 78.8 °F - 69.8 °F 74% 29.95 in 10.0 mi WSW 10.4 mph - N/A   Mostly Cloudy
12:11 PM 80.6 °F 83.9 °F 69.8 °F 70% 29.94 in 10.0 mi WSW 6.9 mph - N/A   Scattered Clouds
12:20 PM 80.6 °F 83.9 °F 69.8 °F 70% 29.94 in 10.0 mi WSW 10.4 mph - N/A   Mostly Cloudy
12:34 PM 80.6 °F 83.2 °F 68.0 °F 65% 29.93 in 10.0 mi SW 8.1 mph - N/A   Scattered Clouds
12:53 PM 82.9 °F 85.4 °F 66.9 °F 58% 29.91 in 10.0 mi SW 11.5 mph - N/A   Scattered Clouds
1:53 PM 82.9 °F 85.0 °F 66.0 °F 56% 29.87 in 10.0 mi WSW 6.9 mph 16.1 mph N/A   Clear
2:53 PM 84.0 °F 86.3 °F 66.0 °F 55% 29.85 in 10.0 mi West 12.7 mph 18.4 mph N/A   Scattered Clouds
3:53 PM 84.9 °F 86.6 °F 64.9 °F 51% 29.83 in 10.0 mi Variable 6.9 mph - N/A   Clear
4:53 PM 84.9 °F 86.6 °F 64.9 °F 51% 29.81 in 10.0 mi SW 11.5 mph - N/A   Partly Cloudy
5:53 PM 81.0 °F 83.0 °F 66.0 °F 60% 29.81 in 10.0 mi West 3.5 mph - N/A   Clear
6:44 PM 77.0 °F - 66.2 °F 69% 29.83 in 10.0 mi West 3.5 mph - N/A Thunderstorm Overcast
6:53 PM 77.0 °F - 66.9 °F 71% 29.83 in 10.0 mi WSW 4.6 mph - N/A   Overcast
7:53 PM 73.0 °F - 66.9 °F 81% 29.84 in 9.0 mi Calm Calm - N/A   Clear
8:53 PM 68.0 °F - 66.0 °F 93% 29.86 in 7.0 mi Calm Calm - N/A   Clear
9:53 PM 66.0 °F - 64.0 °F 93% 29.87 in 7.0 mi Calm Calm - N/A   Clear
10:53 PM 69.1 °F - 59.0 °F 70% 29.87 in 10.0 mi NNW 4.6 mph - N/A   Clear
11:53 PM 66.9 °F - 57.0 °F 70% 29.88 in 10.0 mi NNW 4.6 mph - N/A   Clear